Monarch Pass, CO

3:57 AM MDT on April 26, 2017 (GMT -0600)
Monarch Pass

Weather History for KMYP - May, 2013

Change the Weather History Date:

Thursday, May 30, 2013

  Actual Average (KALS) Record (KALS)
Temperature  
Mean Temperature 33 °F -  
Max Temperature 42 °F 71 °F 88 °F (2000)
Min Temperature 24 °F 37 °F 22 °F (1946)
Degree Days  
Heating Degree Days 32    
Moisture  
Dew Point 18 °F    
Average Humidity 57    
Maximum Humidity 93    
Minimum Humidity 33    
Precipitation  
Precipitation 0.00 in - - ()
Sea Level Pressure  
Sea Level Pressure 30.17 in    
Wind  
Wind Speed 38 mph (West)    
Max Wind Speed 59 mph    
Max Gust Speed 75 mph    
Averages and records for this station are not official NWS values.
T = Trace of Precipitation, MM = Missing Value Source: NWS Daily Summary

Daily Weather History Graph

Daily Weather History Graph

Search for Another Location

Airport or City:

Trip Planner

Search our weather history database for the weather conditions in past years. The results will help you decide how hot, cold, wet, or windy it might be!

Date:

Astronomy

May. 30, 2013 Rise Set
Actual Time 5:43 AM MDT 8:21 PM MDT
Civil Twilight 5:12 AM MDT 8:52 PM MDT
Nautical Twilight 4:34 AM MDT 9:30 PM MDT
Astronomical Twilight 3:51 AM MDT 10:14 PM MDT
Moon 12:26 AM MDT (5/30) 11:51 AM MDT (5/30)
Length of Visible Light 15h 39m
Length of Day
14h 37m
Waning Gibbous, 61% of the Moon is Illuminated
May 30
Waning Gibbous
May 31
Last Quarter
Jun 8
New
Jun 16
First Quarter
Jun 23
Full

Hourly Weather History & Observations

Time (MDT) Temp. Windchill Dew Point Humidity Pressure Visibility Wind Dir Wind Speed Gust Speed Precip Events Conditions
12:13 AM 28.4 °F 11.8 °F 21.2 °F 74% 30.12 in - West 34.5 mph 41.4 mph N/A   Overcast
12:33 AM 28.4 °F 11.4 °F 21.2 °F 74% 30.11 in - West 36.8 mph - N/A   Overcast
12:53 AM 28.4 °F 12.0 °F 21.2 °F 74% 30.12 in - West 33.4 mph 44.9 mph N/A   Overcast
1:13 AM 28.4 °F 12.0 °F 21.2 °F 74% 30.12 in - West 33.4 mph 38.0 mph N/A   Mostly Cloudy
1:33 AM 28.4 °F 12.7 °F 21.2 °F 74% 30.12 in - West 29.9 mph 39.1 mph N/A   Overcast
1:53 AM 28.4 °F 14.7 °F 21.2 °F 74% 30.13 in - West 21.9 mph - N/A   Overcast
2:13 AM 28.4 °F 13.5 °F 21.2 °F 74% 30.12 in - WSW 26.5 mph 35.7 mph N/A   Overcast
2:33 AM 26.6 °F 13.1 °F 21.2 °F 80% 30.11 in - WSW 19.6 mph 31.1 mph N/A   Overcast
2:53 AM 26.6 °F - 21.2 °F 80% 30.11 in - North - - N/A   Overcast
3:13 AM 26.6 °F 13.4 °F 23.0 °F 86% 30.10 in - WSW 18.4 mph - N/A   Overcast
3:33 AM 26.6 °F - 21.2 °F 80% 30.10 in - North - - N/A   Unknown
3:53 AM 26.6 °F 10.0 °F 21.2 °F 80% 30.09 in - West 31.1 mph - N/A   Unknown
4:13 AM 24.8 °F 7.6 °F 21.2 °F 86% 30.09 in - West 31.1 mph - N/A   Unknown
4:33 AM 24.8 °F 6.8 °F 21.2 °F 86% 30.09 in - West 34.5 mph - N/A   Unknown
4:53 AM 24.8 °F 6.0 °F 23.0 °F 93% 30.08 in - West 39.1 mph 44.9 mph N/A   Unknown
5:13 AM 26.6 °F 8.7 °F 23.0 °F 86% 30.09 in - West 38.0 mph 46.0 mph N/A   Unknown
5:33 AM 24.8 °F 5.7 °F 23.0 °F 93% 30.09 in - West 40.3 mph 47.2 mph N/A   Unknown
5:53 AM 24.8 °F 7.1 °F 21.2 °F 86% 30.10 in - West 33.4 mph 43.7 mph N/A   Unknown
6:13 AM 26.6 °F - 21.2 °F 80% 30.10 in - North - - N/A   Unknown
6:33 AM 26.6 °F 8.7 °F 21.2 °F 80% 30.11 in - West 38.0 mph 46.0 mph N/A   Overcast
6:53 AM 26.6 °F 8.9 °F 21.2 °F 80% 30.12 in - West 36.8 mph 49.5 mph N/A   Overcast
7:13 AM 26.6 °F 8.1 °F 21.2 °F 80% 30.12 in - West 41.4 mph 47.2 mph N/A   Overcast
7:33 AM 26.6 °F 8.3 °F 21.2 °F 80% 30.13 in - West 40.3 mph 44.9 mph N/A   Overcast
7:53 AM 28.4 °F 11.4 °F 21.2 °F 74% 30.14 in - West 36.8 mph 47.2 mph N/A   Overcast
8:13 AM 28.4 °F 10.4 °F 19.4 °F 69% 30.14 in - West 42.6 mph 47.2 mph N/A   Overcast
8:33 AM 28.4 °F 9.8 °F 19.4 °F 69% 30.13 in - West 46.0 mph 54.1 mph N/A   Overcast
8:53 AM 28.4 °F 10.0 °F 19.4 °F 69% 30.14 in - West 44.9 mph 65.6 mph N/A   Overcast
9:13 AM 30.2 °F 11.7 °F 17.6 °F 60% 30.15 in - West 50.6 mph 62.1 mph N/A   Overcast
9:33 AM 30.2 °F 14.1 °F 15.8 °F 55% 30.17 in - West 35.7 mph 59.8 mph N/A   Overcast
9:53 AM 32.0 °F 15.1 °F 15.8 °F 51% 30.15 in - West 44.9 mph 58.7 mph N/A   Mostly Cloudy
10:13 AM 32.0 °F 14.4 °F 14.0 °F 48% 30.14 in - West 49.5 mph 64.4 mph N/A   Overcast
10:33 AM 32.0 °F 15.1 °F 14.0 °F 48% 30.16 in - West 44.9 mph 61.0 mph N/A   Mostly Cloudy
10:53 AM 32.0 °F 13.7 °F 12.2 °F 44% 30.15 in - West 55.2 mph 74.8 mph N/A   Mostly Cloudy
11:13 AM 32.0 °F 13.6 °F 12.2 °F 44% 30.15 in - West 56.4 mph 64.4 mph N/A   Mostly Cloudy
11:33 AM 33.8 °F 15.9 °F 14.0 °F 44% 30.15 in - West 58.7 mph 70.2 mph N/A   Mostly Cloudy
11:53 AM 33.8 °F 17.0 °F 12.2 °F 41% 30.17 in - West 49.5 mph 64.4 mph N/A   Scattered Clouds
12:13 PM 33.8 °F 17.3 °F 12.2 °F 41% 30.18 in - West 47.2 mph 64.4 mph N/A   Scattered Clouds
12:33 PM 33.8 °F 17.6 °F 14.0 °F 44% 30.17 in - West 44.9 mph 54.1 mph N/A   Mostly Cloudy
12:53 PM 35.6 °F 21.5 °F 15.8 °F 44% 30.18 in - West 35.7 mph 59.8 mph N/A   Mostly Cloudy
1:13 PM 35.6 °F 20.1 °F 14.0 °F 41% 30.17 in - West 44.9 mph 67.9 mph N/A   Overcast
1:33 PM 37.4 °F 23.1 °F 15.8 °F 41% 30.18 in - West 41.4 mph 54.1 mph N/A   Overcast
1:53 PM 37.4 °F 21.2 °F 14.0 °F 38% 30.14 in - West 57.5 mph 66.7 mph N/A   Overcast
2:13 PM 37.4 °F 21.2 °F 14.0 °F 38% 30.16 in - West 57.5 mph 73.6 mph N/A   Overcast
2:33 PM 37.4 °F 21.6 °F 14.0 °F 38% 30.17 in - West 54.1 mph 66.7 mph N/A   Mostly Cloudy
2:53 PM 37.4 °F 21.7 °F 15.8 °F 41% 30.18 in - West 52.9 mph 71.3 mph N/A   Overcast
3:13 PM 37.4 °F 21.6 °F 17.6 °F 45% 30.19 in - West 54.1 mph 64.4 mph N/A   Overcast
3:33 PM 37.4 °F 22.1 °F 15.8 °F 41% 30.17 in - West 49.5 mph 63.3 mph N/A   Overcast
3:53 PM 37.4 °F 22.2 °F 14.0 °F 38% 30.18 in - West 48.3 mph 67.9 mph N/A   Overcast
4:13 PM 41.0 °F 27.6 °F 14.0 °F 33% 30.18 in - West 46.0 mph 61.0 mph N/A   Mostly Cloudy
4:33 PM 39.2 °F 25.8 °F 14.0 °F 36% 30.18 in - West 40.3 mph 64.4 mph N/A   Mostly Cloudy
4:53 PM 42.8 °F 30.4 °F 15.8 °F 34% 30.18 in - WSW 43.7 mph 61.0 mph N/A   Mostly Cloudy
5:13 PM 41.0 °F 28.3 °F 15.8 °F 36% 30.18 in - WSW 40.3 mph 59.8 mph N/A   Mostly Cloudy
5:33 PM 41.0 °F 28.6 °F 14.0 °F 33% 30.19 in - West 38.0 mph 65.6 mph N/A   Mostly Cloudy
5:53 PM 41.0 °F 26.4 °F 14.0 °F 33% 30.17 in - West 57.5 mph 71.3 mph N/A   Mostly Cloudy
6:13 PM 41.0 °F 27.6 °F 14.0 °F 33% 30.19 in - West 46.0 mph 65.6 mph N/A   Scattered Clouds
6:33 PM 41.0 °F 26.4 °F 14.0 °F 33% 30.18 in - West 57.5 mph 72.5 mph N/A   Scattered Clouds
6:53 PM 39.2 °F 24.9 °F 15.8 °F 39% 30.20 in - West 47.2 mph 64.4 mph N/A   Scattered Clouds
7:13 PM 37.4 °F 23.6 °F 15.8 °F 41% 30.21 in - West 38.0 mph 55.2 mph N/A   Scattered Clouds
7:33 PM 37.4 °F 23.6 °F 15.8 °F 41% 30.23 in - West 38.0 mph 56.4 mph N/A   Scattered Clouds
7:53 PM 35.6 °F 20.6 °F 15.8 °F 44% 30.23 in - West 41.4 mph 59.8 mph N/A   Scattered Clouds
8:13 PM 35.6 °F 20.5 °F 17.6 °F 48% 30.24 in - West 42.6 mph 59.8 mph N/A   Scattered Clouds
8:33 PM 35.6 °F 20.5 °F 17.6 °F 48% 30.25 in - West 42.6 mph 55.2 mph N/A   Clear
8:53 PM 35.6 °F 21.5 °F 17.6 °F 48% 30.25 in - West 35.7 mph 49.5 mph N/A   Clear
9:13 PM 33.8 °F 19.9 °F 15.8 °F 48% 30.27 in - West 31.1 mph 43.7 mph N/A   Mostly Cloudy
9:33 PM 33.8 °F 20.3 °F 17.6 °F 52% 30.27 in - West 28.8 mph 35.7 mph N/A   Overcast
9:53 PM 33.8 °F 21.0 °F 17.6 °F 52% 30.28 in - WSW 25.3 mph 35.7 mph N/A   Overcast
10:13 PM 33.8 °F 20.1 °F 17.6 °F 52% 30.29 in - SW 29.9 mph 36.8 mph N/A   Overcast
10:33 PM 33.8 °F 20.8 °F 17.6 °F 52% 30.29 in - WSW 26.5 mph 42.6 mph N/A   Overcast
10:53 PM 33.8 °F 21.0 °F 17.6 °F 52% 30.30 in - WSW 25.3 mph 33.4 mph N/A   Overcast
11:13 PM 33.8 °F 22.2 °F 17.6 °F 52% 30.31 in - WSW 20.7 mph 32.2 mph N/A   Overcast
11:33 PM 33.8 °F 21.3 °F 17.6 °F 52% 30.31 in - WSW 24.2 mph 34.5 mph N/A   Overcast
11:53 PM 32.0 °F 18.6 °F 17.6 °F 55% 30.30 in - SW 25.3 mph 31.1 mph N/A   Overcast